Weather in Begichevo

Russia / Lipetsk Oblast     53°34′09″N   38°54′35″E
temp.,
°C
wind,
m/s
gust,
m/s
humid.,
%
clouds,
%
prec.,
mm/h
press.,
hPa
HPBL,
m
7 july, thu
thu700:00+19s3384100 0.5 101537
03:00+18s3788100 0.5 1015118
06:00+19s41083100 0.0 1014225
09:00+23s576239 0.0 1014351
12:00+28s67491 0.0 1014980
15:00+29s564591 0.0 10141622
18:00+28s3558100 0.0 1013216
21:00+22sse49721 0.0 1014160
8 july, fri
fri800:00+19wsw34880 0.6 101550
03:00+17w22940 0.6 101529
06:00+19nw11900 0.0 101674
09:00+23sw227249 0.0 1016503
12:00+27sw235463 0.0 10161247
15:00+28sw2348100 0.0 10151765
18:00+27nw22565 0.0 10141014
21:00+20ene348631 1.2 101555
9 july, sat
sat900:00+17e228990 3.7 101526
03:00+17ene1185100 3.7 101511
06:00+19se1286100 0.9 101564
09:00+23e237198 1.1 1014422
12:00+26ese3356100 0.0 10131028
15:00+28ese2347100 0.0 10121713
18:00+18sw8148593 1.8 1013397
21:00+18nw3378100 5.6 101140
10 july, sun
sun1000:00+16ene349428 1.0 101178
03:00+15sse1194100 2.9 101120
06:00+17ese238899 0.0 1011109
09:00+21se347391 0.0 1010407
12:00+25sse565682 0.0 1010809
15:00+28sse3746100 0.0 10101573
18:00+25se5106040 0.0 1009514
21:00+19e357244 0.0 101079
11 july, mon
mon1100:00+18ese71678100 0.1 1009341
03:00+19e51274100 0.1 1009315
06:00+18e41081100 0.1 1008297
09:00+21e61271100 0.1 1006540
12:00+24se8116074 0.0 10061166
15:00+22sse101671100 0.6 1007857
18:00+19se81687100 0.8 1009961
21:00+19se7177894 1.3 1008657